Home > Weather > Enns > Past weeks

Flag for Austria Past Weather in Enns, Upper Austria, Austria — Yesterday and Last 2 Weeks

Now
78 °F

Scattered clouds.


Feels Like: 79 °F
Forecast: 62 / 81 °F
Wind: 5 mph from West

Location: Linz / Hoersching-Flughafen

Current Time: Jul 26, 2016 at 4:13:00 PM

Latest Report: Jul 26, 2016 at 3:00 PM


Visibility: 14 mi

Pressure: 30.02 "Hg

Humidity: 67%

Dew Point: 65 °F

Location of EnnsLocation

Past Weather in Enns — Graph

°F

Enns Temperature Yesterday

Maximum temperature yesterday: 80 °F (at 2:00 PM)
Minimum temperature yesterday: 64 °F (at 4:00 AM)
Average temperature yesterday: 71 °F

High & Low Weather Summary for the Past Weeks

 TemperatureHumidityPressure
High91 °F (Jul 11, 4:00 PM)97% (Jul 12, 4:00 AM)30.30 "Hg (Jul 12, 4:00 AM)
Low51 °F (Jul 15, 4:00 AM)35% (Jul 11, 3:00 PM)29.79 "Hg (Jul 11, 7:00 PM)
Average68 °F77%30.04 "Hg
* Reported Jul 11 2:00 PM — Jul 26 2:00 PM, Enns, Weather by CustomWeather, © 2016

Note: Actual official high and low records may vary slightly from our data, if they occured in-between our weather recording intervals... More about our weather records

Advertising

Enns Weather History for the Previous 24 Hours

Scroll right to see more
 ConditionsComfort  
Time TempWeatherWind HumidityBarometerVisibility
2:00 PM
Tue, Jul 26
75 °FPartly sunny.7 mph74%30.04 "Hg12 mi
1:00 PM79 °FPartly sunny.N/A66%30.03 "Hg15 mi
12:00 PM76 °FPartly sunny.N/A68%30.06 "Hg13 mi
11:00 AM74 °FPartly sunny.3 mph74%30.07 "Hg12 mi
10:00 AM72 °FOvercast.N/A81%30.07 "Hg11 mi
9:00 AM71 °FOvercast.5 mph82%30.08 "Hg8 mi
8:00 AM69 °FLow clouds.N/A90%30.08 "Hg6 mi
7:00 AM67 °FLow clouds.N/A93%30.08 "Hg5 mi
6:00 AM65 °FLow clouds.N/A95%30.08 "Hg4 mi
5:00 AM65 °FPassing clouds.N/A95%30.07 "Hg4 mi
4:00 AM65 °FOvercast.N/A94%30.07 "Hg5 mi
3:00 AM64 °FPassing clouds.N/A96%30.07 "Hg6 mi
2:00 AM66 °FPassing clouds.N/A92%30.06 "Hg7 mi
1:00 AM67 °FPassing clouds.N/A89%30.07 "Hg7 mi
12:00 AM68 °FPassing clouds.5 mph86%30.06 "Hg13 mi
11:00 PM
Mon, Jul 25
69 °FPassing clouds.5 mph82%30.06 "Hg19 mi
10:00 PM70 °FPassing clouds.N/A85%30.06 "Hg22 mi
9:00 PM71 °FPassing clouds.N/A84%30.05 "Hg28 mi
8:00 PM73 °FOvercast.N/A81%30.03 "Hg22 mi
7:00 PM73 °FOvercast.N/A79%30.02 "Hg28 mi
6:00 PM72 °FOvercast.N/A84%30.03 "Hg28 mi
5:00 PM69 °FOvercast.3 mph88%30.03 "Hg25 mi
4:00 PM74 °FOvercast.5 mph73%30.01 "Hg25 mi
Weather by CustomWeather, © 2016

See weather overviewHow to use our weather pages